DW8979 Weather Reports


Display with metric or nautical units.
time (UTC)temp
F
wind
direction
speed
MPH
gust
MPH
rain 1hr
in
rain 24hr
in
rain mn
in
humidity
%
barometer
mb
20180816004622 73 0 3.0 7.0 0.00 0.00 0.00 60 1016.2
20180816004120 74 5 3.0 7.0 0.00 0.00 0.00 59 1016.3
20180816003624 74 355 3.0 9.0 0.00 0.00 0.00 58 1016.3
20180816003124 74 355 3.0 9.0 0.00 0.00 0.00 57 1016.5
20180816002642 75 0 2.0 9.0 0.00 0.00 0.00 57 1016.5
20180816002113 75 40 2.0 7.0 0.00 0.00 0.00 56 1016.6
20180816001612 75 305 2.0 7.0 0.00 0.00 0.00 56 1016.6
20180816001113 76 5 2.0 7.0 0.00 0.00 0.00 56 1016.6
20180816000606 76 0 2.0 7.0 0.00 0.00 0.00 55 1016.7
20180816000106 76 308 1.0 4.0 0.00 0.00 0.00 55 1016.8
20180815235558 77 303 2.0 10.0 0.00 0.00 0.00 55 1016.9
20180815235112 77 355 2.0 10.0 0.00 0.00 0.00 54 1016.9
20180815234600 78 9 1.0 5.0 0.00 0.00 0.00 54 1017.0
20180815234059 78 334 1.0 5.0 0.00 0.00 0.00 53 1017.0
20180815233553 78 355 1.0 6.0 0.00 0.00 0.00 53 1017.0
20180815233046 78 355 2.0 6.0 0.00 0.00 0.00 54 1017.0
20180815232611 79 317 2.0 7.0 0.00 0.00 0.00 52 1017.2
20180815232546 78 323 2.0 7.0 0.00 0.00 0.00 52 1017.1
20180815232115 79 317 2.0 7.0 0.00 0.00 0.00 52 1017.2
20180815231604 78 350 2.0 8.0 0.00 0.00 0.00 53 1017.2
20180815231043 79 347 2.0 8.0 0.00 0.00 0.00 51 1017.3
20180815230542 80 323 1.0 4.0 0.00 0.00 0.00 51 1017.4
20180815230042 80 318 1.0 4.0 0.00 0.00 0.00 50 1017.4
20180815225551 80 270 1.0 7.0 0.00 0.00 0.00 51 1017.4
20180815225039 80 346 1.0 7.0 0.00 0.00 0.00 52 1017.4
20180815224540 79 321 0.0 4.0 0.00 0.00 0.00 53 1017.4
20180815224046 78 321 1.0 3.0 0.00 0.00 0.00 53 1017.3
20180815223539 78 321 2.0 6.0 0.00 0.00 0.00 53 1017.3
20180815223035 79 5 3.0 7.0 0.00 0.00 0.00 52 1017.4
20180815222519 80 350 2.0 7.0 0.00 0.00 0.00 50 1017.7
20180815222019 81 9 1.0 6.0 0.00 0.00 0.00 48 1017.9
20180815221539 81 284 1.0 4.0 0.00 0.00 0.00 50 1017.9
20180815221014 82 254 1.0 6.0 0.00 0.00 0.00 49 1018.0
20180815220517 82 226 1.0 6.0 0.00 0.00 0.00 49 1018.1
20180815220008 81 234 1.0 6.0 0.00 0.00 0.00 51 1018.1
20180815215514 80 235 1.0 6.0 0.00 0.00 0.00 49 1018.0
20180815214939 81 232 2.0 6.0 0.00 0.00 0.00 49 1018.2
20180815214432 81 232 2.0 6.0 0.00 0.00 0.00 49 1018.3
20180815213908 82 240 2.0 5.0 0.00 0.00 0.00 48 1018.3
20180815213904 81 235 2.0 6.0 0.00 0.00 0.00 49 1018.2
20180815213405 82 240 2.0 5.0 0.00 0.00 0.00 48 1018.3
20180815213358 81 219 3.0 6.0 0.00 0.00 0.00 48 1018.3
20180815212902 82 240 2.0 5.0 0.00 0.00 0.00 48 1018.3
20180815212358 82 259 1.0 5.0 0.00 0.00 0.00 47 1018.4
20180815211852 81 268 1.0 5.0 0.00 0.00 0.00 49 1018.3
20180815211352 80 268 2.0 5.0 0.00 0.00 0.00 49 1018.2
20180815210854 80 237 1.0 5.0 0.00 0.00 0.00 50 1018.2
20180815210349 80 275 1.0 5.0 0.00 0.00 0.00 49 1018.1
20180815205847 80 9 1.0 5.0 0.00 0.00 0.00 49 1018.3
20180815205342 79 247 1.0 4.0 0.00 0.00 0.00 52 1018.2
20180815204842 80 248 1.0 4.0 0.00 0.00 0.00 49 1018.1
20180815204340 79 248 1.0 4.0 0.00 0.00 0.00 52 1018.2
20180815203839 79 308 2.0 5.0 0.00 0.00 0.00 51 1018.1
20180815203326 78 303 2.0 7.0 0.00 0.00 0.00 53 1018.1
20180815202828 78 238 2.0 7.0 0.00 0.00 0.00 53 1018.2
20180815202324 79 268 1.0 7.0 0.00 0.00 0.00 51 1018.3
20180815201823 80 250 1.0 4.0 0.00 0.00 0.00 52 1018.3
20180815201319 79 251 1.0 5.0 0.00 0.00 0.00 51 1018.3
20180815200751 78 257 1.0 5.0 0.00 0.00 0.00 52 1018.2
20180815200240 78 300 1.0 6.0 0.00 0.00 0.00 52 1018.0
20180815195730 77 281 1.0 6.0 0.00 0.00 0.00 52 1018.0
20180815195230 77 263 1.0 7.0 0.00 0.00 0.00 53 1018.1
20180815194741 76 236 1.0 7.0 0.00 0.00 0.00 53 1017.9
20180815194215 76 243 1.0 6.0 0.00 0.00 0.00 54 1017.8
20180815193707 75 240 1.0 6.0 0.00 0.00 0.00 56 1017.7
20180815193158 75 5 1.0 5.0 0.00 0.00 0.00 56 1017.7
20180815192654 74 350 1.0 4.0 0.00 0.00 0.00 55 1017.6
20180815192150 74 350 0.0 3.0 0.00 0.00 0.00 55 1017.6
20180815191652 74 350 0.0 4.0 0.00 0.00 0.00 56 1017.6
20180815191151 74 350 1.0 4.0 0.00 0.00 0.00 56 1017.7
20180815190653 74 350 1.0 4.0 0.00 0.00 0.00 56 1017.6
20180815190121 74 350 0.0 4.0 0.00 0.00 0.00 56 1017.6
20180815185618 74 17 0.0 2.0 0.00 0.00 0.00 56 1017.6
20180815185058 73 18 0.0 4.0 0.00 0.00 0.00 58 1017.6
20180815184559 73 19 1.0 5.0 0.00 0.00 0.00 59 1017.4
20180815184050 72 38 1.0 5.0 0.00 0.00 0.00 59 1017.3
20180815183601 71 39 2.0 5.0 0.00 0.00 0.00 61 1017.4
20180815183048 71 36 1.0 5.0 0.00 0.00 0.00 60 1017.6
20180815182552 71 326 1.0 5.0 0.00 0.00 0.00 61 1017.4
20180815182100 70 332 1.0 5.0 0.00 0.00 0.00 63 1017.3
20180815181607 70 271 0.0 3.0 0.00 0.00 0.00 63 1017.3
20180815181100 69 279 0.0 3.0 0.00 0.00 0.00 65 1017.2
20180815180522 68 333 1.0 6.0 0.00 0.00 0.00 66 1017.0
20180815175958 68 333 1.0 6.0 0.00 0.00 0.00 67 1017.0
20180815175458 67 344 1.0 6.0 0.00 0.00 0.00 68 1017.1
20180815174958 67 344 1.0 6.0 0.00 0.00 0.00 68 1017.0
20180815174451 67 293 0.0 3.0 0.00 0.00 0.00 70 1017.1
20180815174013 66 279 0.0 2.0 0.00 0.00 0.00 71 1017.0
20180815173446 65 279 0.0 3.0 0.00 0.00 0.00 71 1016.9
20180815172943 65 279 0.0 3.0 0.00 0.00 0.00 72 1017.0
20180815172453 65 279 0.0 4.0 0.00 0.00 0.00 72 1016.9
20180815171918 64 279 1.0 4.0 0.00 0.00 0.00 75 1016.8
20180815171410 64 346 1.0 5.0 0.00 0.00 0.00 74 1016.7
20180815170919 64 346 1.0 5.0 0.00 0.00 0.00 74 1016.7
20180815170351 64 311 1.0 5.0 0.00 0.00 0.00 75 1016.7
20180815165859 63 310 1.0 5.0 0.00 0.00 0.00 76 1016.6
20180815165348 62 265 1.0 6.0 0.00 0.00 0.00 77 1016.5
20180815164859 62 336 1.0 6.0 0.00 0.00 0.00 78 1016.4
20180815164346 61 327 1.0 4.0 0.00 0.00 0.00 81 1016.4
20180815163851 60 327 1.0 4.0 0.00 0.00 0.00 81 1016.3
20180815163345 60 311 1.0 6.0 0.00 0.00 0.00 83 1016.2
20180815162846 60 311 1.0 6.0 0.00 0.00 0.00 82 1016.2
20180815162346 59 344 1.0 4.0 0.00 0.00 0.00 84 1016.1
20180815161846 59 344 2.0 8.0 0.00 0.00 0.00 84 1016.0
20180815161355 58 344 2.0 8.0 0.00 0.00 0.00 85 1016.0
20180815160834 58 342 1.0 6.0 0.00 0.00 0.00 85 1015.9
20180815160328 58 347 1.0 4.0 0.00 0.00 0.00 86 1015.9
20180815155829 58 338 1.0 6.0 0.00 0.00 0.00 87 1015.8
20180815155325 57 355 2.0 7.0 0.00 0.00 0.00 87 1015.7
20180815154843 57 5 2.0 7.0 0.00 0.00 0.00 88 1015.7
20180815154838 57 334 2.0 9.0 0.00 0.00 0.00 88 1015.7
20180815154327 57 5 2.0 7.0 0.00 0.00 0.00 88 1015.7
20180815153832 56 355 2.0 7.0 0.00 0.00 0.00 88 1015.7
20180815153322 56 23 1.0 7.0 0.00 0.00 0.00 89 1015.5
20180815152822 56 328 2.0 7.0 0.00 0.00 0.00 89 1015.5
20180815152333 56 355 2.0 5.0 0.00 0.00 0.00 90 1015.3
20180815151818 55 350 2.0 9.0 0.00 0.00 0.00 91 1015.2
20180815151319 55 350 3.0 9.0 0.00 0.00 0.00 91 1015.1
20180815150827 55 350 3.0 7.0 0.00 0.00 0.00 91 1015.1
20180815150310 55 351 3.0 7.0 0.00 0.00 0.00 92 1015.1
20180815145811 54 355 3.0 7.0 0.00 0.00 0.00 92 1015.0
20180815145310 54 341 3.0 7.0 0.00 0.00 0.00 92 1015.0
20180815144810 54 346 3.0 7.0 0.00 0.00 0.00 92 1014.8
20180815144310 54 319 3.0 9.0 0.00 0.00 0.00 92 1014.8
20180815143806 54 338 3.0 9.0 0.00 0.00 0.00 92 1014.7
20180815143310 54 347 3.0 9.0 0.00 0.00 0.00 92 1014.7
20180815143305 54 11 3.0 7.0 0.00 0.00 0.00 92 1014.6
20180815142819 54 11 3.0 7.0 0.00 0.00 0.00 92 1014.6
20180815142310 53 355 4.0 7.0 0.00 0.00 0.00 92 1014.6
20180815141809 53 348 4.0 7.0 0.00 0.00 0.00 92 1014.6
20180815141303 53 355 4.0 8.0 0.00 0.00 0.00 93 1014.5
20180815140811 53 345 4.0 11.0 0.00 0.00 0.00 93 1014.5
20180815140302 53 351 4.0 12.0 0.00 0.00 0.00 93 1014.5
20180815135757 53 350 5.0 13.0 0.00 0.00 0.00 93 1014.5
20180815135303 53 348 5.0 13.0 0.00 0.00 0.00 93 1014.5
20180815134750 53 336 4.0 8.0 0.00 0.00 0.00 93 1014.4
20180815134249 53 345 4.0 8.0 0.00 0.00 0.00 93 1014.4
20180815133750 53 342 3.0 8.0 0.00 0.00 0.00 93 1014.3
20180815133250 53 331 3.0 7.0 0.00 0.00 0.00 93 1014.4
20180815132751 53 343 3.0 8.0 0.00 0.00 0.00 93 1014.3
20180815132251 53 348 3.0 8.0 0.00 0.00 0.00 93 1014.3
20180815131801 53 355 4.0 9.0 0.00 0.00 0.00 93 1014.3
20180815131248 53 315 4.0 9.0 0.00 0.00 0.00 93 1014.2
20180815130747 53 9 4.0 9.0 0.00 0.00 0.00 93 1014.2
20180815130244 53 351 4.0 7.0 0.00 0.00 0.00 93 1014.2
20180815125744 53 338 3.0 9.0 0.00 0.00 0.00 93 1014.2
20180815125244 53 350 4.0 9.0 0.00 0.00 0.00 93 1014.2
20180815124745 53 9 3.0 6.0 0.00 0.00 0.00 93 1014.1
20180815124232 53 344 4.0 9.0 0.00 0.00 0.00 93 1014.0
20180815123753 53 342 4.0 9.0 0.00 0.00 0.00 93 1014.0
20180815123224 53 355 3.0 8.0 0.00 0.00 0.00 93 1014.0
20180815122722 53 331 4.0 9.0 0.00 0.00 0.00 93 1013.9
20180815122214 53 355 4.0 9.0 0.00 0.00 0.00 93 1013.9
20180815121717 54 0 4.0 9.0 0.00 0.00 0.00 93 1013.9
20180815121211 54 355 3.0 11.0 0.00 0.00 0.00 93 1013.9
20180815120703 54 342 4.0 11.0 0.00 0.00 0.00 93 1013.9
20180815120158 54 348 5.0 12.0 0.00 0.00 0.00 93 1014.0
20180815115658 54 355 5.0 12.0 0.00 0.00 0.00 92 1013.9
20180815115153 54 355 4.0 9.0 0.00 0.00 0.00 93 1013.9
20180815114651 54 347 4.0 9.0 0.00 0.00 0.00 93 1013.9
20180815114150 54 315 4.0 9.0 0.00 0.00 0.00 93 1013.9
20180815113645 54 312 4.0 9.0 0.00 0.00 0.00 93 1013.9
20180815113142 54 347 4.0 9.0 0.00 0.00 0.00 93 1013.8
20180815112646 54 5 4.0 9.0 0.00 0.00 0.00 93 1013.7
20180815112136 54 5 4.0 11.0 0.00 0.00 0.00 93 1013.8
20180815111632 54 348 4.0 11.0 0.00 0.00 0.00 93 1013.8
20180815111134 54 346 4.0 8.0 0.00 0.00 0.00 93 1013.8
20180815110624 54 350 5.0 11.0 0.00 0.00 0.00 93 1013.7
20180815110123 54 350 4.0 11.0 0.00 0.00 0.00 93 1013.8
20180815105618 54 350 4.0 9.0 0.00 0.00 0.00 93 1013.7
20180815105118 54 333 4.0 9.0 0.00 0.00 0.00 93 1013.7
20180815104616 54 344 5.0 10.0 0.00 0.00 0.00 92 1013.6
20180815104116 54 345 5.0 11.0 0.00 0.00 0.00 93 1013.6
20180815103606 54 340 5.0 11.0 0.00 0.00 0.00 92 1013.6
20180815103116 54 350 4.0 10.0 0.00 0.00 0.00 92 1013.6
20180815102609 54 0 4.0 10.0 0.00 0.00 0.00 92 1013.6
20180815102109 54 331 4.0 9.0 0.00 0.00 0.00 92 1013.6
20180815102105 54 355 4.0 7.0 0.00 0.00 0.00 92 1013.6
20180815101614 54 331 4.0 9.0 0.00 0.00 0.00 92 1013.6
20180815101102 54 348 4.0 9.0 0.00 0.00 0.00 92 1013.7
20180815100602 54 5 4.0 8.0 0.00 0.00 0.00 92 1013.7
20180815100108 54 327 4.0 8.0 0.00 0.00 0.00 92 1013.7
20180815095604 54 355 4.0 10.0 0.00 0.00 0.00 92 1013.7
20180815095056 54 342 4.0 10.0 0.00 0.00 0.00 92 1013.7
20180815094555 54 346 4.0 10.0 0.00 0.00 0.00 92 1013.7
20180815094110 54 348 4.0 11.0 0.00 0.00 0.00 92 1013.7
20180815093549 54 351 4.0 11.0 0.00 0.00 0.00 92 1013.9
20180815093046 54 348 4.0 9.0 0.00 0.00 0.00 92 1013.8
20180815092533 54 333 4.0 11.0 0.00 0.00 0.00 92 1013.8
20180815092032 54 350 4.0 11.0 0.00 0.00 0.00 92 1013.7
20180815091530 54 336 4.0 9.0 0.00 0.00 0.00 92 1013.7
20180815091042 55 349 4.0 8.0 0.00 0.00 0.00 92 1013.8
20180815090544 55 348 4.0 8.0 0.00 0.00 0.00 92 1013.9
20180815090030 55 0 3.0 9.0 0.00 0.00 0.00 92 1014.0
20180815085526 55 13 4.0 9.0 0.00 0.00 0.00 92 1014.0
20180815085020 55 355 5.0 10.0 0.00 0.00 0.00 92 1013.9
20180815084514 55 341 5.0 10.0 0.00 0.00 0.00 92 1013.7
20180815084022 55 343 5.0 12.0 0.00 0.00 0.00 92 1013.8
20180815083512 55 341 5.0 12.0 0.00 0.00 0.00 92 1013.8
20180815083012 55 344 4.0 10.0 0.00 0.00 0.00 92 1013.8
20180815082512 55 348 3.0 11.0 0.00 0.00 0.00 92 1013.9
20180815082010 55 336 4.0 11.0 0.00 0.00 0.00 92 1013.9
20180815081527 55 0 4.0 9.0 0.00 0.00 0.00 92 1013.8
20180815081013 55 351 4.0 11.0 0.00 0.00 0.00 92 1013.9
20180815080502 55 350 4.0 11.0 0.00 0.00 0.00 92 1013.9
20180815080001 55 355 4.0 8.0 0.00 0.00 0.00 92 1013.9
20180815075500 55 355 3.0 7.0 0.00 0.00 0.00 92 1014.0
20180815075001 55 349 3.0 7.0 0.00 0.00 0.00 92 1013.9
20180815074504 55 5 4.0 8.0 0.00 0.00 0.00 92 1013.9
20180815073956 55 355 4.0 11.0 0.00 0.00 0.00 92 1013.9
20180815073459 55 355 5.0 11.0 0.00 0.00 0.00 92 1013.8
20180815072956 55 355 4.0 10.0 0.00 0.00 0.00 92 1013.8
20180815072450 55 355 4.0 10.0 0.00 0.00 0.00 92 1013.9
20180815071948 55 5 4.0 9.0 0.00 0.00 0.00 92 1013.9
20180815071449 56 355 4.0 9.0 0.00 0.00 0.00 92 1013.9
20180815071004 56 330 3.0 10.0 0.00 0.00 0.00 92 1014.0
20180815070445 56 9 3.0 10.0 0.00 0.00 0.00 92 1014.0
20180815065949 56 343 3.0 7.0 0.00 0.00 0.00 92 1014.0
20180815065448 56 336 3.0 7.0 0.00 0.00 0.00 92 1014.0
20180815064943 56 345 4.0 7.0 0.00 0.00 0.00 92 1014.1
20180815064446 56 341 4.0 9.0 0.00 0.00 0.00 92 1014.1
20180815063940 56 347 4.0 9.0 0.00 0.00 0.00 92 1014.1
20180815063447 56 355 3.0 9.0 0.00 0.00 0.00 92 1014.1
20180815062939 56 336 4.0 9.0 0.00 0.00 0.00 92 1014.0
20180815062434 56 0 3.0 9.0 0.00 0.00 0.00 92 1014.0
20180815061933 56 355 3.0 9.0 0.00 0.00 0.00 92 1014.0
20180815061430 56 318 3.0 9.0 0.00 0.00 0.00 92 1014.0
20180815060931 56 50 4.0 9.0 0.00 0.00 0.00 92 1013.9
20180815060428 56 355 4.0 10.0 0.00 0.00 0.00 92 1013.9
20180815055925 56 350 4.0 10.0 0.00 0.00 0.00 92 1013.8
20180815055427 56 317 4.0 11.0 0.00 0.00 0.00 92 1013.8
20180815054926 56 5 4.0 11.0 0.00 0.00 0.00 92 1013.9
20180815054435 56 355 4.0 10.0 0.00 0.00 0.00 92 1014.0
20180815053919 56 350 4.0 10.0 0.00 0.00 0.00 91 1014.0
20180815053422 56 38 4.0 9.0 0.00 0.00 0.00 91 1013.9
20180815052916 56 346 3.0 9.0 0.00 0.00 0.00 91 1013.9
20180815052417 56 342 4.0 10.0 0.00 0.00 0.00 91 1013.8
20180815051921 57 355 4.0 10.0 0.00 0.00 0.00 91 1013.8
20180815051447 57 0 4.0 8.0 0.00 0.00 0.00 91 1013.8
20180815050859 57 349 4.0 9.0 0.00 0.00 0.00 91 1013.9
20180815050357 57 344 4.0 9.0 0.00 0.00 0.00 91 1013.9
20180815045854 57 336 3.0 9.0 0.00 0.00 0.00 91 1013.8
20180815045346 57 347 4.0 10.0 0.00 0.00 0.00 91 1013.8
20180815044840 57 338 4.0 10.0 0.00 0.00 0.00 91 1013.8
20180815044335 57 344 4.0 10.0 0.00 0.00 0.00 90 1013.8
20180815043833 57 0 4.0 11.0 0.00 0.00 0.00 90 1013.9
20180815043338 57 348 5.0 11.0 0.00 0.00 0.00 90 1013.7
20180815042833 57 341 5.0 15.0 0.00 0.00 0.00 90 1013.6
20180815042337 57 338 5.0 15.0 0.00 0.00 0.00 90 1013.6
20180815041828 57 309 5.0 11.0 0.00 0.00 0.00 90 1013.6
20180815041328 57 336 6.0 12.0 0.00 0.00 0.00 89 1013.5
20180815040826 58 345 6.0 12.0 0.00 0.00 0.00 89 1013.6
20180815040327 58 355 5.0 12.0 0.00 0.00 0.00 88 1013.6
20180815035828 58 343 5.0 13.0 0.00 0.00 0.00 88 1013.5
20180815035317 58 11 5.0 13.0 0.00 0.00 0.00 87 1013.5
20180815034816 58 340 5.0 12.0 0.00 0.00 0.00 87 1013.6
20180815034315 59 333 6.0 13.0 0.00 0.00 0.00 86 1013.6
20180815033810 59 9 6.0 13.0 0.00 0.00 0.00 86 1013.5
20180815033310 59 334 5.0 11.0 0.00 0.00 0.00 85 1013.5
20180815032820 60 336 5.0 11.0 0.00 0.00 0.00 85 1013.6
20180815032314 60 337 5.0 11.0 0.00 0.00 0.00 84 1013.6
20180815031809 60 336 5.0 11.0 0.00 0.00 0.00 83 1013.7
20180815031305 60 338 5.0 11.0 0.00 0.00 0.00 83 1013.9
20180815030810 61 337 5.0 11.0 0.00 0.00 0.00 82 1013.8
20180815030305 61 346 4.0 11.0 0.00 0.00 0.00 81 1013.9
20180815025819 62 355 4.0 11.0 0.00 0.00 0.00 81 1013.9
20180815025321 62 350 4.0 10.0 0.00 0.00 0.00 80 1014.0
20180815024801 62 342 4.0 10.0 0.00 0.00 0.00 79 1014.0
20180815024301 63 0 3.0 9.0 0.00 0.00 0.00 79 1014.1
20180815023800 63 348 4.0 8.0 0.00 0.00 0.00 78 1014.2
20180815023323 63 344 4.0 11.0 0.00 0.00 0.00 77 1014.2
20180815022814 64 351 4.0 11.0 0.00 0.00 0.00 76 1014.1
20180815022249 64 347 3.0 8.0 0.00 0.00 0.00 75 1014.2
20180815021744 65 15 3.0 10.0 0.00 0.00 0.00 74 1014.1
20180815021240 65 326 4.0 10.0 0.00 0.00 0.00 74 1014.2
20180815020736 66 339 4.0 11.0 0.00 0.00 0.00 73 1014.2
20180815020219 66 355 3.0 11.0 0.00 0.00 0.00 71 1014.3
20180815015720 67 323 3.0 9.0 0.00 0.00 0.00 70 1014.4
20180815015205 67 345 3.0 9.0 0.00 0.00 0.00 70 1014.4
20180815014702 68 347 2.0 7.0 0.00 0.00 0.00 69 1014.5
20180815014154 68 5 3.0 7.0 0.00 0.00 0.00 69 1014.5
20180815013655 68 333 3.0 8.0 0.00 0.00 0.00 69 1014.6
20180815013150 69 350 4.0 9.0 0.00 0.00 0.00 68 1014.6
20180815012701 69 5 3.0 9.0 0.00 0.00 0.00 67 1014.7
20180815012150 70 348 2.0 9.0 0.00 0.00 0.00 66 1014.8
20180815011644 70 351 2.0 9.0 0.00 0.00 0.00 66 1014.8
20180815011139 70 350 3.0 8.0 0.00 0.00 0.00 66 1014.8
20180815010646 70 355 2.0 8.0 0.00 0.00 0.00 64 1014.8
20180815010148 71 355 2.0 8.0 0.00 0.00 0.00 64 1014.8
20180815005629 71 311 2.0 6.0 0.00 0.00 0.00 63 1015.0
20180815005129 71 321 2.0 7.0 0.00 0.00 0.00 63 1015.0